This demonstration page uses our WeatherBlox Daily Observations layout. Learn more.

Left ArrowRight Arrow

31.31129, -92.44514

Hourly Observations for August 12, 2016

Temp ( °F °C ) Dew Point ( °F °C ) Humidity (%) Winds ( mph kmh ) Pressure ( in mb ) Visibility ( mi km ) Precip ( " mm )
12:53 am 00:53 Partly Cloudy 79 26.1 77 25 94 94 Calm 29.86 1011 8 13 0.00 0.00
1:01 am 01:01 Mostly Cloudy 79 26.1 77 25 94 94 Calm 29.85 1011 7 11 0.00 0.00
1:43 am 01:43 Partly Cloudy 79 26.1 77 25 94 94 Calm 29.85 1011 8 13 0.00 0.00
1:53 am 01:53 Mostly Clear 79 26.1 77 25 94 94 Calm 29.85 1011 8 13 0.00 0.00
2:53 am 02:53 Clear 78 25.6 77 25 97 97 Calm 29.84 1010 8 13 0.00 0.00
3:53 am 03:53 Partly Cloudy with Mist and Fog 78 25.6 77 25 97 97 Calm 29.81 1010 5 8 0.00 0.00
4:24 am 04:24 Partly Cloudy with Mist and Fog 78 25.6 77 25 97 97 Calm 29.83 1010 5 8 0.00 0.00
4:37 am 04:37 Mostly Cloudy with Mist and Fog 78 25.6 77 25 97 97 Calm 29.83 1010 6 10 0.00 0.00
4:53 am 04:53 Mostly Cloudy with Mist and Fog 78 25.6 77 25 97 97 NNW 3 6 29.82 1010 6 10 0.00 0.00
5:53 am 05:53 Clear with Mist and Fog 78 25.6 77 25 97 97 Calm 29.81 1010 5 8 0.00 0.00
6:01 am 06:01 Mostly Clear with Mist and Fog 78 25.6 78 25.6 100 100 Calm 29.80 1009 5 8 0.00 0.00
6:53 am 06:53 Mostly Cloudy with Mist and Fog 79 26.1 78 25.6 97 97 Calm 29.84 1011 4 6 0.00 0.00
7:53 am 07:53 Sunny with Mist and Fog 79 26.1 79 26.1 100 100 W 3 6 29.83 1010 5 8 0.00 0.00
8:00 am 08:00 Partly Cloudy with Mist and Fog 80 26.7 79 26.1 97 97 W 3 6 29.83 1010 5 8 0.00 0.00
8:20 am 08:20 Mostly Cloudy with Mist and Fog 80 26.7 79 26.1 97 97 WNW 3 6 29.83 1010 5 8 0.00 0.00
8:30 am 08:30 Partly Cloudy with Mist and Fog 80 26.7 79 26.1 97 97 W 5 7 29.83 1010 5 8 0.00 0.00
8:53 am 08:53 Partly Cloudy with Mist and Fog 81 27.2 80 26.7 97 97 Calm 29.85 1011 6 10 0.00 0.00
9:01 am 09:01 Mostly Cloudy with Mist and Fog 81 27.2 79 26.1 94 94 NW 3 6 29.83 1010 6 10 0.00 0.00
9:13 am 09:13 Partly Cloudy with Mist and Fog 81 27.2 80 26.7 97 97 W 6 9 29.83 1010 6 10 0.00 0.00
9:53 am 09:53 Mostly Sunny 83 28.3 79 26.1 88 88 WNW 7 11 29.85 1011 7 11 0.00 0.00
10:53 am 10:53 Cloudy 86 30 79 26.1 80 80 WNW 7 11 29.85 1011 9 14 0.00 0.00
11:37 am 11:37 Cloudy 85 29.4 78 25.6 80 80 WNW 6 9 29.85 1011 9 14 0.00 0.00
11:53 am 11:53 Cloudy 85 29.4 76 24.4 75 75 W 5 7 29.85 1011 9 14 0.00 0.00
12:01 pm 12:01 Cloudy 86 30 78 25.6 77 77 W 6 9 29.83 1010 9 14 0.00 0.00
12:53 pm 12:53 Partly Cloudy 86 30 78 25.6 77 77 W 9 15 29.82 1010 9 14 0.00 0.00
1:53 pm 13:53 Sunny 88 31.1 79 26.1 75 75 SSW 7 11 29.81 1010 9 14 0.00 0.00
2:53 pm 14:53 Mostly Cloudy 87 30.6 80 26.7 80 80 SSW 7 11 29.78 1008 9 14 0.00 0.00
3:01 pm 15:01 Cloudy 87 30.6 81 27.2 82 82 SSW 9 15 29.77 1008 9 14 0.00 0.00
3:53 pm 15:53 Sunny 90 32.2 81 27.2 75 75 SW 8 13 29.72 1007 9 14 0.00 0.00
4:33 pm 16:33 Mostly Cloudy with Nearby Thunderstorms 88 31.1 79 26.1 75 75 SW 12 19 29.71 1006 9 14 0.00 0.00
4:48 pm 16:48 Mostly Cloudy with Thunderstorms 88 31 79 26 75 75 SW 13 20 29.71 1006 9 14 0.00 0.00
4:53 pm 16:53 Mostly Cloudy with Thunderstorms 87 30.6 79 26.1 77 77 SW 10 17 29.71 1006 9 14 0.00 0.00
5:05 pm 17:05 Cloudy with Strong Thunderstorms 79 26.1 72 22.2 79 79 N 16 26 29.77 1008 2 3 0.14 3.56
5:11 pm 17:11 Cloudy with Strong Thunderstorms 75 23.9 73 22.8 94 94 ENE 15 24 29.77 1008 1 1 0.41 10.41
5:15 pm 17:15 Mostly Cloudy with Strong Thunderstorms 75 23.9 73 22.8 94 94 ENE 15 24 29.77 1008 1 2 0.45 11.43
5:22 pm 17:22 Cloudy with Strong Thunderstorms 76 24.4 74 23.3 94 94 E 24 39 29.77 1008 2 2 0.49 12.45
5:26 pm 17:26 Cloudy with Strong Thunderstorms 76 24.4 75 23.9 97 97 E 22 35 29.77 1008 2 3 0.50 12.70
5:37 pm 17:37 Mostly Cloudy with Thunderstorms 76 24.4 75 23.9 97 97 E 15 24 29.77 1008 4 6 0.52 13.21
5:53 pm 17:53 Mostly Cloudy with Thunderstorms 76 24.4 75 23.9 97 97 ENE 8 13 29.78 1008 10 16 0.52 13.21
6:07 pm 18:07 Cloudy with Thunderstorms 76 24.4 75 23.9 97 97 SW 8 13 29.80 1009 6 10 0.02 0.51
6:23 pm 18:23 Mostly Cloudy with Thunderstorms 76 24.4 75 23.9 97 97 SSW 6 9 29.74 1007 6 10 0.04 1.02
6:37 pm 18:37 Mostly Cloudy with Nearby Thunderstorms 75 23.9 75 23.9 100 100 Calm 29.74 1007 7 11 0.04 1.02
6:53 pm 18:53 Mostly Cloudy with Nearby Thunderstorms 76 24.4 75 23.9 97 97 WNW 5 7 29.77 1008 6 10 0.06 1.52
7:18 pm 19:18 Cloudy with Light Rain 75 23.9 75 23.9 100 100 WNW 3 6 29.74 1007 6 10 0.01 0.25
7:53 pm 19:53 Mostly Cloudy with Light Rain 76 24.4 75 23.9 97 97 SW 6 9 29.76 1008 8 13 0.01 0.25
8:53 pm 20:53 Mostly Clear 75 23.9 75 23.9 100 100 W 5 7 29.78 1008 10 16 0.01 0.25
9:01 pm 21:01 Mostly Clear 75 23.9 74 23.3 96 96 W 3 6 29.77 1008 10 16 0.00 0.00
9:53 pm 21:53 Mostly Cloudy 76 24.4 75 23.9 97 97 W 3 6 29.78 1009 10 16 0.00 0.00
10:53 pm 22:53 Mostly Cloudy 76 24.4 75 23.9 97 97 Calm 29.79 1009 10 16 0.00 0.00
11:53 pm 23:53 Cloudy 77 25 76 24.4 96 96 WSW 3 6 29.79 1009 9 14 0.00 0.00

Powered by AerisWeather